Time,TemperatureF,DewpointF,PressureIn,WindDirection,WindDirectionDegrees,WindSpeedMPH,WindSpeedGustMPH,Humidity,HourlyPrecipIn,Conditions,Clouds,dailyrainin,SoftwareType,DateUTC
2013-05-31 00:02:00,65.0,64.0,30.35,SW,228,0.0,0.0,97,0.00,,,0.00,,2013-05-31 04:02:00,
2013-05-31 00:12:00,65.0,64.0,30.35,SW,228,0.0,0.0,97,0.00,,,0.00,,2013-05-31 04:12:00,
2013-05-31 00:22:00,65.0,64.0,30.35,SW,228,0.0,0.0,97,0.00,,,0.00,,2013-05-31 04:22:00,
2013-05-31 00:33:00,65.0,64.0,30.36,SW,228,0.0,0.0,97,0.00,,,0.00,,2013-05-31 04:33:00,
2013-05-31 00:42:00,65.0,64.0,30.36,SW,228,0.0,0.0,97,0.00,,,0.00,,2013-05-31 04:42:00,
2013-05-31 00:53:00,65.0,64.0,30.36,SW,228,0.0,0.0,97,0.00,,,0.00,,2013-05-31 04:53:00,
2013-05-31 01:02:00,65.0,64.0,30.36,SW,228,0.0,0.0,97,0.00,,,0.00,,2013-05-31 05:02:00,
2013-05-31 01:12:00,65.0,64.0,30.36,SW,228,0.0,0.0,97,0.00,,,0.00,,2013-05-31 05:12:00,
2013-05-31 01:22:00,65.0,64.0,30.36,SW,228,0.0,0.0,97,0.00,,,0.00,,2013-05-31 05:22:00,
2013-05-31 01:32:00,65.0,64.0,30.36,SW,228,0.0,0.0,97,0.00,,,0.00,,2013-05-31 05:32:00,
2013-05-31 01:42:00,65.0,64.0,30.36,SW,228,0.0,0.0,97,0.00,,,0.00,,2013-05-31 05:42:00,
2013-05-31 01:52:00,66.0,65.0,30.37,North,6,0.0,0.0,98,0.00,,,0.00,,2013-05-31 05:52:00,
2013-05-31 02:02:00,66.0,65.0,30.37,North,6,0.0,0.0,97,0.00,,,0.00,,2013-05-31 06:02:00,
2013-05-31 02:12:00,66.0,65.0,30.37,North,6,0.0,0.0,97,0.00,,,0.00,,2013-05-31 06:12:00,
2013-05-31 02:22:00,66.0,65.0,30.37,North,6,0.0,0.0,97,0.00,,,0.00,,2013-05-31 06:22:00,
2013-05-31 02:32:00,65.0,64.0,30.36,North,6,0.0,0.0,97,0.00,,,0.00,,2013-05-31 06:32:00,
2013-05-31 02:42:00,65.0,64.0,30.35,North,6,0.0,0.0,98,0.00,,,0.00,,2013-05-31 06:42:00,
2013-05-31 02:51:00,65.0,64.0,30.35,North,6,0.0,0.0,98,0.00,,,0.00,,2013-05-31 06:51:00,
2013-05-31 03:02:00,65.0,64.0,30.35,North,6,0.0,0.0,98,0.00,,,0.00,,2013-05-31 07:02:00,
2013-05-31 03:11:00,64.0,63.0,30.35,North,6,0.0,0.0,98,0.00,,,0.00,,2013-05-31 07:11:00,
2013-05-31 03:21:00,64.0,63.0,30.35,North,6,0.0,0.0,98,0.00,,,0.00,,2013-05-31 07:21:00,
2013-05-31 03:32:00,64.0,64.0,30.35,North,6,0.0,0.0,99,0.00,,,0.00,,2013-05-31 07:32:00,
2013-05-31 03:41:00,64.0,64.0,30.35,North,6,0.0,0.0,99,0.00,,,0.00,,2013-05-31 07:41:00,
2013-05-31 03:53:00,64.0,64.0,30.34,North,6,0.0,0.0,99,0.00,,,0.00,,2013-05-31 07:53:00,
2013-05-31 04:02:00,64.0,64.0,30.34,North,6,0.0,0.0,99,0.00,,,0.00,,2013-05-31 08:02:00,
2013-05-31 04:11:00,64.0,64.0,30.34,North,6,0.0,0.0,99,0.00,,,0.00,,2013-05-31 08:11:00,
2013-05-31 04:22:00,63.0,63.0,30.34,North,6,0.0,0.0,100,0.00,,,0.00,,2013-05-31 08:22:00,
2013-05-31 04:32:00,63.0,63.0,30.34,North,6,0.0,0.0,100,0.00,,,0.00,,2013-05-31 08:32:00,
2013-05-31 04:42:00,63.0,63.0,30.34,North,6,0.0,0.0,100,0.00,,,0.00,,2013-05-31 08:42:00,
2013-05-31 04:51:00,63.0,63.0,30.33,North,6,0.0,0.0,100,0.00,,,0.00,,2013-05-31 08:51:00,
2013-05-31 05:01:00,63.0,63.0,30.34,North,6,0.0,0.0,100,0.00,,,0.00,,2013-05-31 09:01:00,
2013-05-31 05:11:00,63.0,63.0,30.34,North,6,0.0,0.0,100,0.00,,,0.00,,2013-05-31 09:11:00,
2013-05-31 05:21:00,63.0,63.0,30.34,North,6,0.0,0.0,100,0.00,,,0.00,,2013-05-31 09:21:00,
2013-05-31 05:32:00,63.0,63.0,30.33,North,6,0.0,0.0,100,0.00,,,0.00,,2013-05-31 09:32:00,
2013-05-31 05:43:00,63.0,63.0,30.33,North,6,0.0,0.0,100,0.00,,,0.00,,2013-05-31 09:43:00,
2013-05-31 05:53:00,63.0,63.0,30.35,North,6,0.0,0.0,100,0.00,,,0.00,,2013-05-31 09:53:00,
2013-05-31 06:02:00,63.0,63.0,30.34,North,6,0.0,0.0,100,0.00,,,0.00,,2013-05-31 10:02:00,
2013-05-31 06:12:00,63.0,63.0,30.35,North,6,0.0,0.0,100,0.00,,,0.00,,2013-05-31 10:12:00,
2013-05-31 06:22:00,63.0,63.0,30.35,North,6,0.0,0.0,100,0.00,,,0.00,,2013-05-31 10:22:00,
2013-05-31 06:33:00,63.0,63.0,30.35,North,6,0.0,0.0,100,0.00,,,0.00,,2013-05-31 10:33:00,
2013-05-31 06:42:00,63.0,63.0,30.35,North,6,0.0,0.0,100,0.00,,,0.00,,2013-05-31 10:42:00,
2013-05-31 06:52:00,63.0,63.0,30.35,North,6,0.0,0.0,100,0.00,,,0.00,,2013-05-31 10:52:00,
2013-05-31 07:02:00,63.0,63.0,30.36,North,349,0.0,0.0,100,0.00,,,0.00,,2013-05-31 11:02:00,
2013-05-31 07:12:00,63.0,63.0,30.36,North,349,0.0,0.0,100,0.00,,,0.00,,2013-05-31 11:12:00,
2013-05-31 07:22:00,62.0,62.0,30.36,North,349,0.0,0.0,100,0.00,,,0.00,,2013-05-31 11:22:00,
2013-05-31 07:32:00,63.0,63.0,30.37,North,349,0.0,0.0,100,0.00,,,0.00,,2013-05-31 11:32:00,
2013-05-31 07:42:00,63.0,63.0,30.37,North,349,0.0,0.0,100,0.00,,,0.00,,2013-05-31 11:42:00,
2013-05-31 07:52:00,63.0,63.0,30.37,North,349,0.0,0.0,100,0.00,,,0.00,,2013-05-31 11:52:00,
2013-05-31 08:01:00,64.0,64.0,30.37,North,349,0.0,0.0,100,0.00,,,0.00,,2013-05-31 12:01:00,
2013-05-31 08:11:00,64.0,64.0,30.37,North,349,0.0,0.0,100,0.00,,,0.00,,2013-05-31 12:11:00,
2013-05-31 08:22:00,65.0,65.0,30.38,North,349,0.0,0.0,100,0.00,,,0.00,,2013-05-31 12:22:00,
2013-05-31 08:31:00,66.0,66.0,30.38,North,349,0.0,0.0,100,0.00,,,0.00,,2013-05-31 12:31:00,
2013-05-31 08:42:00,66.0,66.0,30.38,North,349,0.0,0.0,100,0.00,,,0.00,,2013-05-31 12:42:00,
2013-05-31 08:52:00,68.0,67.0,30.38,SSE,166,0.0,0.0,98,0.00,,,0.00,,2013-05-31 12:52:00,
2013-05-31 09:01:00,69.0,68.0,30.38,South,169,0.0,0.0,96,0.00,,,0.00,,2013-05-31 13:01:00,
2013-05-31 09:11:00,69.0,68.0,30.38,South,169,0.0,0.0,96,0.00,,,0.00,,2013-05-31 13:11:00,
2013-05-31 09:21:00,72.0,69.0,30.38,SE,146,1.0,2.0,90,0.00,,,0.00,,2013-05-31 13:21:00,
2013-05-31 09:32:00,72.0,69.0,30.37,SSE,166,1.0,3.0,89,0.00,,,0.00,,2013-05-31 13:32:00,
2013-05-31 09:42:00,72.0,69.0,30.37,SSE,166,1.0,3.0,89,0.00,,,0.00,,2013-05-31 13:42:00,
2013-05-31 09:52:00,74.0,70.0,30.37,ESE,103,0.0,0.0,86,0.00,,,0.00,,2013-05-31 13:52:00,
2013-05-31 10:02:00,73.0,69.0,30.37,ENE,70,0.0,2.0,87,0.00,,,0.00,,2013-05-31 14:02:00,
2013-05-31 10:11:00,73.0,69.0,30.37,ENE,70,0.0,2.0,87,0.00,,,0.00,,2013-05-31 14:11:00,
2013-05-31 10:21:00,74.0,68.0,30.38,West,262,1.0,2.0,82,0.00,,,0.00,,2013-05-31 14:21:00,
2013-05-31 10:32:00,74.0,67.0,30.37,WSW,248,4.0,8.0,78,0.00,,,0.00,,2013-05-31 14:32:00,
2013-05-31 10:42:00,74.0,67.0,30.37,WSW,248,4.0,8.0,78,0.00,,,0.00,,2013-05-31 14:42:00,
2013-05-31 10:52:00,75.0,68.0,30.37,SW,236,2.0,2.0,79,0.00,,,0.00,,2013-05-31 14:52:00,
2013-05-31 11:01:00,76.0,67.0,30.37,SW,232,1.0,2.0,74,0.00,,,0.00,,2013-05-31 15:01:00,
2013-05-31 11:11:00,76.0,67.0,30.37,SW,232,1.0,2.0,74,0.00,,,0.00,,2013-05-31 15:11:00,
2013-05-31 11:21:00,77.0,68.0,30.37,West,281,1.0,3.0,74,0.00,,,0.00,,2013-05-31 15:21:00,
2013-05-31 11:33:00,78.0,68.0,30.37,South,180,1.0,2.0,71,0.00,,,0.00,,2013-05-31 15:33:00,
2013-05-31 11:43:00,78.0,68.0,30.37,South,180,1.0,2.0,71,0.00,,,0.00,,2013-05-31 15:43:00,
2013-05-31 11:53:00,79.0,68.0,30.37,NNE,30,1.0,2.0,68,0.00,,,0.00,,2013-05-31 15:53:00,
2013-05-31 12:03:00,79.0,68.0,30.37,SSW,204,0.0,0.0,68,0.00,,,0.00,,2013-05-31 16:03:00,
2013-05-31 12:12:00,79.0,66.0,30.37,SSW,197,2.0,3.0,65,0.00,,,0.00,,2013-05-31 16:12:00,
2013-05-31 12:22:00,79.0,66.0,30.37,SSW,197,2.0,3.0,65,0.00,,,0.00,,2013-05-31 16:22:00,
2013-05-31 12:33:00,79.0,69.0,30.37,WNW,288,5.0,7.0,72,0.00,,,0.00,,2013-05-31 16:33:00,
2013-05-31 12:42:00,79.0,69.0,30.37,WNW,288,5.0,7.0,72,0.00,,,0.00,,2013-05-31 16:42:00,
2013-05-31 12:52:00,81.0,66.0,30.36,SSE,163,3.0,6.0,60,0.00,,,0.00,,2013-05-31 16:52:00,
2013-05-31 13:02:00,81.0,68.0,30.35,WSW,249,2.0,4.0,64,0.00,,,0.00,,2013-05-31 17:02:00,
2013-05-31 13:12:00,81.0,68.0,30.35,WSW,249,2.0,4.0,64,0.00,,,0.00,,2013-05-31 17:12:00,
2013-05-31 13:22:00,82.0,67.0,30.35,SW,233,5.0,10.0,60,0.00,,,0.00,,2013-05-31 17:22:00,
2013-05-31 13:32:00,82.0,67.0,30.35,WSW,255,3.0,5.0,60,0.00,,,0.00,,2013-05-31 17:32:00,
2013-05-31 13:42:00,82.0,67.0,30.35,WSW,255,3.0,5.0,60,0.00,,,0.00,,2013-05-31 17:42:00,
2013-05-31 13:52:00,83.0,67.0,30.34,WSW,239,2.0,3.0,59,0.00,,,0.00,,2013-05-31 17:52:00,
2013-05-31 14:02:00,83.0,67.0,30.33,SSE,163,2.0,3.0,58,0.00,,,0.00,,2013-05-31 18:02:00,
2013-05-31 14:12:00,83.0,65.0,30.32,WNW,298,6.0,9.0,54,0.00,,,0.00,,2013-05-31 18:12:00,
2013-05-31 14:22:00,83.0,65.0,30.32,WNW,298,6.0,9.0,54,0.00,,,0.00,,2013-05-31 18:22:00,
2013-05-31 14:32:00,83.0,67.0,30.32,SSE,150,2.0,3.0,59,0.00,,,0.00,,2013-05-31 18:32:00,
2013-05-31 14:42:00,83.0,67.0,30.32,SSE,150,2.0,3.0,59,0.00,,,0.00,,2013-05-31 18:42:00,
2013-05-31 14:52:00,83.0,66.0,30.30,SSW,200,4.0,6.0,57,0.00,,,0.00,,2013-05-31 18:52:00,
2013-05-31 15:02:00,83.0,65.0,30.30,SSE,152,2.0,4.0,54,0.00,,,0.00,,2013-05-31 19:02:00,
2013-05-31 15:11:00,83.0,65.0,30.30,SSE,152,2.0,4.0,54,0.00,,,0.00,,2013-05-31 19:11:00,
2013-05-31 15:22:00,84.0,67.0,30.29,South,190,3.0,5.0,57,0.00,,,0.00,,2013-05-31 19:22:00,
2013-05-31 15:32:00,83.0,67.0,30.29,WNW,285,5.0,12.0,58,0.00,,,0.00,,2013-05-31 19:32:00,
2013-05-31 15:42:00,85.0,68.0,30.28,West,274,3.0,5.0,56,0.00,,,0.00,,2013-05-31 19:42:00,
2013-05-31 15:52:00,85.0,68.0,30.28,West,274,3.0,5.0,56,0.00,,,0.00,,2013-05-31 19:52:00,
2013-05-31 16:02:00,85.0,68.0,30.28,WNW,288,1.0,2.0,56,0.00,,,0.00,,2013-05-31 20:02:00,
2013-05-31 16:11:00,85.0,68.0,30.28,WNW,288,1.0,2.0,56,0.00,,,0.00,,2013-05-31 20:11:00,
2013-05-31 16:22:00,85.0,66.0,30.27,WSW,255,1.0,2.0,53,0.00,,,0.00,,2013-05-31 20:22:00,
2013-05-31 16:32:00,85.0,66.0,30.27,WSW,245,3.0,4.0,54,0.00,,,0.00,,2013-05-31 20:32:00,
2013-05-31 16:42:00,85.0,66.0,30.27,WSW,245,3.0,4.0,54,0.00,,,0.00,,2013-05-31 20:42:00,
2013-05-31 16:52:00,83.0,66.0,30.27,WSW,248,4.0,6.0,56,0.00,,,0.00,,2013-05-31 20:52:00,
2013-05-31 17:01:00,83.0,67.0,30.27,West,263,2.0,4.0,59,0.00,,,0.00,,2013-05-31 21:01:00,
2013-05-31 17:11:00,83.0,67.0,30.27,West,263,2.0,4.0,59,0.00,,,0.00,,2013-05-31 21:11:00,
2013-05-31 17:22:00,83.0,67.0,30.27,SW,236,1.0,3.0,58,0.00,,,0.00,,2013-05-31 21:22:00,
2013-05-31 17:32:00,83.0,67.0,30.26,South,188,4.0,6.0,58,0.00,,,0.00,,2013-05-31 21:32:00,
2013-05-31 17:42:00,81.0,65.0,30.26,SW,231,1.0,2.0,59,0.00,,,0.00,,2013-05-31 21:42:00,
2013-05-31 17:53:00,81.0,65.0,30.26,SW,231,1.0,2.0,59,0.00,,,0.00,,2013-05-31 21:53:00,
2013-05-31 18:02:00,82.0,66.0,30.26,NW,316,3.0,7.0,59,0.00,,,0.00,,2013-05-31 22:02:00,
2013-05-31 18:12:00,82.0,66.0,30.26,NW,316,3.0,7.0,59,0.00,,,0.00,,2013-05-31 22:12:00,
2013-05-31 18:22:00,82.0,68.0,30.26,SW,217,1.0,2.0,62,0.00,,,0.00,,2013-05-31 22:22:00,
2013-05-31 18:33:00,81.0,66.0,30.26,West,271,1.0,2.0,61,0.00,,,0.00,,2013-05-31 22:33:00,
2013-05-31 18:42:00,81.0,67.0,30.26,SW,218,0.0,0.0,62,0.00,,,0.00,,2013-05-31 22:42:00,
2013-05-31 18:53:00,81.0,67.0,30.26,SW,218,0.0,0.0,62,0.00,,,0.00,,2013-05-31 22:53:00,
2013-05-31 19:02:00,80.0,68.0,30.26,SW,224,1.0,1.0,66,0.00,,,0.00,,2013-05-31 23:02:00,
2013-05-31 19:12:00,80.0,68.0,30.26,SW,224,1.0,1.0,66,0.00,,,0.00,,2013-05-31 23:12:00,
2013-05-31 19:21:00,80.0,67.0,30.26,West,277,0.0,0.0,65,0.00,,,0.00,,2013-05-31 23:21:00,
2013-05-31 19:32:00,80.0,67.0,30.26,WSW,238,0.0,1.0,65,0.00,,,0.00,,2013-05-31 23:32:00,
2013-05-31 19:42:00,79.0,68.0,30.25,SW,236,0.0,0.0,70,0.00,,,0.00,,2013-05-31 23:42:00,
2013-05-31 19:52:00,79.0,68.0,30.25,SW,236,0.0,0.0,70,0.00,,,0.00,,2013-05-31 23:52:00,
2013-05-31 20:01:00,78.0,69.0,30.26,SW,236,0.0,0.0,74,0.00,,,0.00,,2013-06-01 00:01:00,
2013-05-31 20:12:00,76.0,69.0,30.25,SW,236,0.0,0.0,78,0.00,,,0.00,,2013-06-01 00:12:00,
2013-05-31 20:22:00,76.0,69.0,30.25,SW,236,0.0,0.0,78,0.00,,,0.00,,2013-06-01 00:22:00,
2013-05-31 20:32:00,75.0,69.0,30.26,SW,236,0.0,0.0,81,0.00,,,0.00,,2013-06-01 00:32:00,
2013-05-31 20:42:00,73.0,68.0,30.25,SW,236,0.0,0.0,83,0.00,,,0.00,,2013-06-01 00:42:00,
2013-05-31 20:52:00,73.0,68.0,30.25,SW,236,0.0,0.0,83,0.00,,,0.00,,2013-06-01 00:52:00,
2013-05-31 21:01:00,73.0,68.0,30.26,SW,236,0.0,0.0,84,0.00,,,0.00,,2013-06-01 01:01:00,
2013-05-31 21:11:00,72.0,68.0,30.26,SW,236,0.0,0.0,87,0.00,,,0.00,,2013-06-01 01:11:00,
2013-05-31 21:22:00,72.0,68.0,30.26,SW,236,0.0,0.0,87,0.00,,,0.00,,2013-06-01 01:22:00,
2013-05-31 21:32:00,71.0,68.0,30.25,SW,236,0.0,0.0,89,0.00,,,0.00,,2013-06-01 01:32:00,
2013-05-31 21:42:00,70.0,67.0,30.26,SW,236,0.0,0.0,90,0.00,,,0.00,,2013-06-01 01:42:00,
2013-05-31 21:52:00,70.0,67.0,30.26,SW,236,0.0,0.0,90,0.00,,,0.00,,2013-06-01 01:52:00,
2013-05-31 22:01:00,70.0,68.0,30.26,SW,236,0.0,0.0,92,0.00,,,0.00,,2013-06-01 02:01:00,
2013-05-31 22:11:00,69.0,67.0,30.27,SW,236,0.0,0.0,93,0.00,,,0.00,,2013-06-01 02:11:00,
2013-05-31 22:21:00,69.0,67.0,30.27,SW,236,0.0,0.0,93,0.00,,,0.00,,2013-06-01 02:21:00,
2013-05-31 22:32:00,68.0,67.0,30.27,SW,236,0.0,0.0,95,0.00,,,0.00,,2013-06-01 02:32:00,
2013-05-31 22:42:00,68.0,67.0,30.27,SW,236,0.0,0.0,96,0.00,,,0.00,,2013-06-01 02:42:00,
2013-05-31 22:52:00,68.0,67.0,30.27,SW,236,0.0,0.0,96,0.00,,,0.00,,2013-06-01 02:52:00,
2013-05-31 23:02:00,67.0,66.0,30.27,SW,236,0.0,0.0,96,0.00,,,0.00,,2013-06-01 03:02:00,
2013-05-31 23:11:00,67.0,66.0,30.26,SW,236,0.0,0.0,97,0.00,,,0.00,,2013-06-01 03:11:00,
2013-05-31 23:21:00,67.0,66.0,30.26,SW,236,0.0,0.0,97,0.00,,,0.00,,2013-06-01 03:21:00,
2013-05-31 23:33:00,66.0,65.0,30.27,SW,236,0.0,0.0,97,0.00,,,0.00,,2013-06-01 03:33:00,
2013-05-31 23:43:00,66.0,65.0,30.27,SW,236,0.0,0.0,98,0.00,,,0.00,,2013-06-01 03:43:00,
2013-05-31 23:53:00,66.0,65.0,30.27,SW,236,0.0,0.0,98,0.00,,,0.00,,2013-06-01 03:53:00,